Location: C�an Torras
(41.5052°N, 1.9280°E)
Time: 02:03:55
(UTC+00:00)

SAR-Lupe-1 - Pass Details

Date: 20 January 2021
Orbit: 482 x 484 km, 98.2° (Epoch: 06 March)

Event Time Altitude Azimuth Distance (km) Brightness Sun altitude
Exits shadow 18:42:33 21° 1° (N) 1,155 5.8 -20.2°
Maximum altitude 18:44:49 61° 286° (WNW) 554 4.5 -20.6°
Drops below altitude 10° 18:48:20 10° 206° (SSW) 1,656 7.2 -21.3°
Sets 18:50:23 0° 202° (SSW) 2,531 8.1 -21.7°
